sat.trackr.live / text

‹ back to catalog

STARLINK-36907

NORAD 67940 · 2026-037J

PAYLOAD ACTIVE UNKNOWN

§ Identity

Operator
Country
US
Launch date
2026-02-24
Launch site
AFETR
Launch vehicle
Mass (kg)
RCS (m²)

Purposes: comms

External: N2YO · Heavens-Above · Gunter

§ Orbital elements

Epoch: 2026-09-19T04:16:52.524480Z

Period
94.27 min
Inclination
43.0002°
Eccentricity
0.0001517
Mean motion
15.27591077 rev/d
Perigee alt
482.0 km
Apogee alt
484.1 km
Semi-major
6,861.2 km
B*
5.7589e-4
RAAN
177.8781°
Arg perigee
266.0677°
Mean anomaly
94.0001°
Rev number
3,293

§ Raw data

STARLINK-369071 67940U 26037J   26262.17838570  .00015624  00000+0  57589-3 0  99952 67940  43.0002 177.8781 0001517 266.0677  94.0001 15.27591077 32939

JSON: /api/v1/satellites/67940 · /tle

For live sub-satellite position, see the globe view (requires WebGL).

§ Visibility from observer

Set your observer location to see the next 7 days of passes ≥ 10°. The values pass through the URL so the page stays shareable.

No JS? Fill the form by hand. The geolocation button needs JavaScript.